Time,TemperatureF,DewpointF,PressureIn,WindDirection,WindDirectionDegrees,WindSpeedMPH,WindSpeedGustMPH,Humidity,HourlyPrecipIn,Conditions,Clouds,dailyrainin,SoftwareType,DateUTC
2013-03-08 00:00:00,50.7,50.7,29.08,SE,135,3.0,12.0,100,0.00,,,0.03,Wunderground v.1.13,2013-03-08 00:00:00,
2013-03-08 00:10:00,50.7,50.7,29.08,SE,135,3.0,12.0,100,0.00,,,0.03,Wunderground v.1.13,2013-03-08 00:10:00,
2013-03-08 00:20:00,50.7,50.7,29.08,SE,135,3.0,12.0,100,0.00,,,0.03,Wunderground v.1.13,2013-03-08 00:20:00,
2013-03-08 00:30:00,50.7,50.7,29.08,SE,135,1.0,7.0,100,0.00,,,0.03,Wunderground v.1.13,2013-03-08 00:30:00,
2013-03-08 00:40:00,50.7,50.7,29.08,SE,135,2.0,9.0,100,0.00,,,0.03,Wunderground v.1.13,2013-03-08 00:40:00,
2013-03-08 00:50:00,50.7,50.7,29.08,SE,135,2.0,9.0,100,0.00,,,0.03,Wunderground v.1.13,2013-03-08 00:50:00,
2013-03-08 01:00:00,50.6,50.6,29.08,SE,135,1.0,7.0,100,0.00,,,0.03,Wunderground v.1.13,2013-03-08 01:00:00,
2013-03-08 01:10:00,50.5,50.5,29.08,SE,135,2.0,6.0,100,0.00,,,0.03,Wunderground v.1.13,2013-03-08 01:10:00,
2013-03-08 01:20:00,50.5,50.5,29.08,SE,135,2.0,6.0,100,0.00,,,0.03,Wunderground v.1.13,2013-03-08 01:20:00,
2013-03-08 01:30:00,50.6,50.6,29.08,SE,135,2.0,10.0,100,0.00,,,0.03,Wunderground v.1.13,2013-03-08 01:30:00,
2013-03-08 01:40:00,50.6,50.6,29.08,SSE,158,2.0,8.0,100,0.00,,,0.03,Wunderground v.1.13,2013-03-08 01:40:00,
2013-03-08 01:50:00,50.6,50.6,29.08,SSE,158,2.0,8.0,100,0.00,,,0.03,Wunderground v.1.13,2013-03-08 01:50:00,
2013-03-08 02:00:00,50.6,50.6,29.08,ESE,113,2.0,8.0,100,0.00,,,0.03,Wunderground v.1.13,2013-03-08 02:00:00,
2013-03-08 02:10:00,50.5,50.5,29.08,ESE,113,2.0,8.0,100,0.00,,,0.03,Wunderground v.1.13,2013-03-08 02:10:00,
2013-03-08 02:20:00,50.5,50.5,29.08,ESE,113,2.0,8.0,100,0.00,,,0.03,Wunderground v.1.13,2013-03-08 02:20:00,
2013-03-08 02:30:00,50.4,50.4,29.08,ESE,113,1.0,6.0,100,0.00,,,0.03,Wunderground v.1.13,2013-03-08 02:30:00,
2013-03-08 02:40:00,50.3,50.3,29.08,SE,135,3.0,11.0,100,0.00,,,0.03,Wunderground v.1.13,2013-03-08 02:40:00,
2013-03-08 02:50:00,50.3,50.3,29.08,SE,135,3.0,11.0,100,0.00,,,0.03,Wunderground v.1.13,2013-03-08 02:50:00,
2013-03-08 03:00:00,50.3,50.3,29.08,ESE,113,3.0,10.0,100,0.00,,,0.03,Wunderground v.1.13,2013-03-08 03:00:00,
2013-03-08 03:10:00,50.3,50.3,29.07,SE,135,3.0,12.0,100,0.00,,,0.03,Wunderground v.1.13,2013-03-08 03:10:00,
2013-03-08 03:20:00,50.3,50.3,29.07,SE,135,3.0,12.0,100,0.00,,,0.03,Wunderground v.1.13,2013-03-08 03:20:00,
2013-03-08 03:30:00,50.3,50.3,29.07,SSE,158,2.0,7.0,100,0.00,,,0.03,Wunderground v.1.13,2013-03-08 03:30:00,
2013-03-08 03:40:00,50.3,50.3,29.07,South,180,3.0,11.0,100,0.00,,,0.03,Wunderground v.1.13,2013-03-08 03:40:00,
2013-03-08 03:50:00,50.3,50.3,29.07,South,180,3.0,11.0,100,0.00,,,0.03,Wunderground v.1.13,2013-03-08 03:50:00,
2013-03-08 04:00:00,50.4,50.4,29.06,SSW,203,2.0,8.0,100,0.01,,,0.03,Wunderground v.1.13,2013-03-08 04:00:00,
2013-03-08 04:10:00,50.3,50.3,29.06,SSW,203,4.0,9.0,100,0.01,,,0.03,Wunderground v.1.13,2013-03-08 04:10:00,
2013-03-08 04:20:00,50.3,50.3,29.06,SSW,203,4.0,9.0,100,0.01,,,0.03,Wunderground v.1.13,2013-03-08 04:20:00,
2013-03-08 04:30:00,50.4,50.4,29.06,SE,135,5.0,12.0,100,0.01,,,0.03,Wunderground v.1.13,2013-03-08 04:30:00,
2013-03-08 04:40:00,50.5,50.5,29.06,South,180,7.0,17.0,100,0.01,,,0.03,Wunderground v.1.13,2013-03-08 04:40:00,
2013-03-08 04:50:00,50.5,50.5,29.06,South,180,7.0,17.0,100,0.01,,,0.03,Wunderground v.1.13,2013-03-08 04:50:00,
2013-03-08 05:00:00,50.5,50.5,29.07,South,180,8.0,14.0,100,0.00,,,0.03,Wunderground v.1.13,2013-03-08 05:00:00,
2013-03-08 05:10:00,50.5,50.5,29.07,South,180,6.0,14.0,100,0.00,,,0.03,Wunderground v.1.13,2013-03-08 05:10:00,
2013-03-08 05:20:00,50.5,50.5,29.07,South,180,6.0,14.0,100,0.00,,,0.03,Wunderground v.1.13,2013-03-08 05:20:00,
2013-03-08 05:30:00,50.5,50.5,29.08,South,180,5.0,12.0,100,0.00,,,0.03,Wunderground v.1.13,2013-03-08 05:30:00,
2013-03-08 05:40:00,50.4,50.4,29.08,South,180,5.0,11.0,100,0.00,,,0.03,Wunderground v.1.13,2013-03-08 05:40:00,
2013-03-08 05:50:00,50.4,50.4,29.08,South,180,5.0,11.0,100,0.00,,,0.03,Wunderground v.1.13,2013-03-08 05:50:00,
2013-03-08 06:00:00,50.3,50.3,29.08,South,180,5.0,12.0,100,0.00,,,0.03,Wunderground v.1.13,2013-03-08 06:00:00,
2013-03-08 06:10:00,50.2,50.2,29.09,South,180,5.0,11.0,100,0.01,,,0.03,Wunderground v.1.13,2013-03-08 06:10:00,
2013-03-08 06:20:00,50.2,50.2,29.09,South,180,5.0,11.0,100,0.01,,,0.03,Wunderground v.1.13,2013-03-08 06:20:00,
2013-03-08 06:30:00,50.4,50.4,29.09,South,180,7.0,12.0,100,0.01,,,0.03,Wunderground v.1.13,2013-03-08 06:30:00,
2013-03-08 06:40:00,50.5,50.5,29.10,South,180,7.0,12.0,100,0.01,,,0.03,Wunderground v.1.13,2013-03-08 06:40:00,
2013-03-08 06:50:00,50.5,50.5,29.10,South,180,7.0,12.0,100,0.01,,,0.03,Wunderground v.1.13,2013-03-08 06:50:00,
2013-03-08 07:00:00,50.5,50.5,29.10,South,180,7.0,12.0,100,0.01,,,0.03,Wunderground v.1.13,2013-03-08 07:00:00,
2013-03-08 07:10:00,50.5,50.5,29.11,SSW,203,7.0,12.0,100,0.01,,,0.03,Wunderground v.1.13,2013-03-08 07:10:00,
2013-03-08 07:20:00,50.5,50.5,29.11,SSW,203,7.0,12.0,100,0.01,,,0.03,Wunderground v.1.13,2013-03-08 07:20:00,
2013-03-08 07:30:00,50.5,50.5,29.12,SSW,203,8.0,14.0,100,0.01,,,0.03,Wunderground v.1.13,2013-03-08 07:30:00,
2013-03-08 07:40:00,50.6,50.6,29.12,SSW,203,7.0,12.0,100,0.01,,,0.03,Wunderground v.1.13,2013-03-08 07:40:00,
2013-03-08 07:50:00,50.6,50.6,29.12,SSW,203,7.0,12.0,100,0.01,,,0.03,Wunderground v.1.13,2013-03-08 07:50:00,
2013-03-08 08:00:00,50.6,50.6,29.13,SSW,203,6.0,12.0,100,0.01,,,0.03,Wunderground v.1.13,2013-03-08 08:00:00,
2013-03-08 08:10:00,50.5,50.5,29.14,SSW,203,7.0,14.0,100,0.00,,,0.03,Wunderground v.1.13,2013-03-08 08:10:00,
2013-03-08 08:20:00,50.5,50.5,29.14,SSW,203,7.0,14.0,100,0.00,,,0.03,Wunderground v.1.13,2013-03-08 08:20:00,
2013-03-08 08:30:00,50.6,50.6,29.15,SSW,203,9.0,14.0,100,0.00,,,0.03,Wunderground v.1.13,2013-03-08 08:30:00,
2013-03-08 08:40:00,50.8,50.8,29.15,SSW,203,9.0,16.0,100,0.00,,,0.03,Wunderground v.1.13,2013-03-08 08:40:00,
2013-03-08 08:50:00,50.8,50.8,29.15,SSW,203,9.0,16.0,100,0.00,,,0.03,Wunderground v.1.13,2013-03-08 08:50:00,
2013-03-08 09:00:00,50.8,50.8,29.16,SSW,203,9.0,14.0,100,0.00,,,0.03,Wunderground v.1.13,2013-03-08 09:00:00,
2013-03-08 09:10:00,50.8,50.8,29.17,SSW,203,8.0,13.0,100,0.00,,,0.03,Wunderground v.1.13,2013-03-08 09:10:00,
2013-03-08 09:20:00,50.8,50.8,29.17,SSW,203,8.0,13.0,100,0.00,,,0.03,Wunderground v.1.13,2013-03-08 09:20:00,
2013-03-08 09:30:00,50.9,50.9,29.18,SSW,203,9.0,13.0,100,0.00,,,0.03,Wunderground v.1.13,2013-03-08 09:30:00,
2013-03-08 09:39:00,51.2,51.2,29.18,SSW,206,9.0,9.0,100,0.00,,,0.03,Wunderground v.1.13,2013-03-08 09:39:00,
2013-03-08 09:49:00,51.0,51.0,29.18,SSW,200,10.0,10.0,100,0.00,,,0.03,Wunderground v.1.13,2013-03-08 09:49:00,
2013-03-08 09:59:00,51.2,51.2,29.19,SSW,210,7.0,7.0,100,0.00,,,0.03,Wunderground v.1.13,2013-03-08 09:59:00,
2013-03-08 10:09:00,51.5,51.5,29.19,SSW,203,7.0,7.0,100,0.00,,,0.03,Wunderground v.1.13,2013-03-08 10:09:00,
2013-03-08 10:19:00,51.2,51.2,29.19,SSW,198,7.0,7.0,100,0.00,,,0.03,Wunderground v.1.13,2013-03-08 10:19:00,
2013-03-08 10:29:00,51.0,51.0,29.20,SSW,199,8.0,8.0,100,0.00,,,0.03,Wunderground v.1.13,2013-03-08 10:29:00,
2013-03-08 10:39:00,51.2,51.2,29.20,SSW,206,8.0,8.0,100,0.00,,,0.03,Wunderground v.1.13,2013-03-08 10:39:00,
2013-03-08 10:49:00,51.2,51.2,29.20,SW,217,7.0,8.0,100,0.00,,,0.03,Wunderground v.1.13,2013-03-08 10:49:00,
2013-03-08 10:59:00,51.2,51.2,29.21,SSW,212,8.0,10.0,100,0.00,,,0.03,Wunderground v.1.13,2013-03-08 10:59:00,
2013-03-08 11:09:00,51.3,51.3,29.21,SSW,203,8.0,8.0,100,0.00,,,0.03,Wunderground v.1.13,2013-03-08 11:09:00,
2013-03-08 11:19:00,51.6,51.6,29.22,SSW,205,7.0,11.0,100,0.00,,,0.03,Wunderground v.1.13,2013-03-08 11:19:00,
2013-03-08 11:29:00,51.5,51.5,29.22,SSW,200,8.0,8.0,100,0.00,,,0.03,Wunderground v.1.13,2013-03-08 11:29:00,
2013-03-08 11:39:00,51.5,51.5,29.22,SSW,209,9.0,11.0,100,0.00,,,0.03,Wunderground v.1.13,2013-03-08 11:39:00,
2013-03-08 11:49:00,51.5,51.5,29.23,SSW,202,10.0,10.0,100,0.00,,,0.03,Wunderground v.1.13,2013-03-08 11:49:00,
2013-03-08 12:09:00,51.5,51.5,29.24,SSW,203,9.0,13.0,100,0.00,,,0.03,Wunderground v.1.13,2013-03-08 12:09:00,
2013-03-08 12:19:00,51.8,51.8,29.24,South,189,9.0,13.0,100,0.00,,,0.03,Wunderground v.1.13,2013-03-08 12:19:00,
2013-03-08 12:29:00,51.8,51.8,29.25,SSW,198,8.0,10.0,100,0.00,,,0.03,Wunderground v.1.13,2013-03-08 12:29:00,
2013-03-08 12:39:00,51.8,51.8,29.25,SSW,196,8.0,13.0,100,0.00,,,0.03,Wunderground v.1.13,2013-03-08 12:39:00,
2013-03-08 12:49:00,51.9,51.9,29.25,South,182,9.0,10.0,100,0.00,,,0.03,Wunderground v.1.13,2013-03-08 12:49:00,
2013-03-08 12:59:00,52.2,52.2,29.26,SSW,209,10.0,11.0,100,0.00,,,0.03,Wunderground v.1.13,2013-03-08 12:59:00,
2013-03-08 13:09:00,52.2,52.2,29.26,SW,217,9.0,9.0,100,0.00,,,0.03,Wunderground v.1.13,2013-03-08 13:09:00,
2013-03-08 13:19:00,52.4,52.4,29.26,SSW,209,8.0,8.0,100,0.00,,,0.03,Wunderground v.1.13,2013-03-08 13:19:00,
2013-03-08 13:29:00,51.9,51.9,29.26,SSW,198,9.0,11.0,100,0.00,,,0.03,Wunderground v.1.13,2013-03-08 13:29:00,
2013-03-08 13:39:00,52.1,52.1,29.26,SSW,198,9.0,9.0,100,0.00,,,0.03,Wunderground v.1.13,2013-03-08 13:39:00,
2013-03-08 13:49:00,52.1,52.1,29.26,SSW,199,7.0,7.0,100,0.00,,,0.03,Wunderground v.1.13,2013-03-08 13:49:00,
2013-03-08 13:59:00,52.1,52.1,29.27,SSW,202,7.0,8.0,100,0.00,,,0.03,Wunderground v.1.13,2013-03-08 13:59:00,
2013-03-08 14:09:00,51.9,51.9,29.27,SSW,193,7.0,7.0,100,0.00,,,0.03,Wunderground v.1.13,2013-03-08 14:09:00,
2013-03-08 14:19:00,52.2,52.2,29.27,SSW,199,8.0,11.0,100,0.00,,,0.03,Wunderground v.1.13,2013-03-08 14:19:00,
2013-03-08 14:29:00,52.4,52.4,29.27,South,181,8.0,9.0,100,0.00,,,0.03,Wunderground v.1.13,2013-03-08 14:29:00,
2013-03-08 14:39:00,52.7,52.7,29.27,South,191,6.0,9.0,100,0.00,,,0.03,Wunderground v.1.13,2013-03-08 14:39:00,
2013-03-08 14:48:00,52.5,52.5,29.27,South,189,5.0,9.0,100,0.00,,,0.03,Wunderground v.1.13,2013-03-08 14:48:00,
2013-03-08 14:59:00,52.5,52.5,29.27,South,184,7.0,7.0,100,0.00,,,0.03,Wunderground v.1.13,2013-03-08 14:59:00,
2013-03-08 15:08:00,52.4,52.4,29.27,South,182,4.0,6.0,100,0.00,,,0.03,Wunderground v.1.13,2013-03-08 15:08:00,
2013-03-08 15:19:00,52.4,52.4,29.27,South,171,3.0,3.0,100,0.00,,,0.03,Wunderground v.1.13,2013-03-08 15:19:00,
2013-03-08 15:28:00,52.2,52.2,29.28,SSE,164,3.0,7.0,100,0.00,,,0.03,Wunderground v.1.13,2013-03-08 15:28:00,
2013-03-08 15:39:00,52.2,52.2,29.28,SSE,162,3.0,5.0,100,0.00,,,0.03,Wunderground v.1.13,2013-03-08 15:39:00,
2013-03-08 15:48:00,52.5,52.5,29.28,SSE,164,4.0,5.0,100,0.00,,,0.03,Wunderground v.1.13,2013-03-08 15:48:00,
2013-03-08 16:08:00,52.8,52.8,29.28,South,184,4.0,8.0,100,0.00,,,0.03,Wunderground v.1.13,2013-03-08 16:08:00,
2013-03-08 16:18:00,52.7,52.7,29.28,SSE,158,5.0,8.0,100,0.00,,,0.03,Wunderground v.1.13,2013-03-08 16:18:00,
2013-03-08 16:28:00,52.8,52.8,29.28,South,176,4.0,4.0,100,0.00,,,0.03,Wunderground v.1.13,2013-03-08 16:28:00,
2013-03-08 16:38:00,52.8,52.8,29.28,SSE,148,2.0,2.0,100,0.00,,,0.03,Wunderground v.1.13,2013-03-08 16:38:00,
2013-03-08 16:48:00,53.0,53.0,29.28,SSE,157,2.0,2.0,100,0.00,,,0.03,Wunderground v.1.13,2013-03-08 16:48:00,
2013-03-08 16:58:00,53.4,53.4,29.28,SE,136,2.0,2.0,100,0.00,,,0.03,Wunderground v.1.13,2013-03-08 16:58:00,
2013-03-08 17:08:00,53.7,53.7,29.29,SE,145,3.0,4.0,100,0.00,,,0.03,Wunderground v.1.13,2013-03-08 17:08:00,
2013-03-08 17:18:00,53.4,53.4,29.29,SSE,147,3.0,3.0,100,0.00,,,0.03,Wunderground v.1.13,2013-03-08 17:18:00,
2013-03-08 17:28:00,52.4,52.4,29.29,East,99,2.0,2.0,100,0.00,,,0.03,Wunderground v.1.13,2013-03-08 17:28:00,
2013-03-08 17:38:00,51.6,51.6,29.29,ESE,114,2.0,2.0,100,0.00,,,0.03,Wunderground v.1.13,2013-03-08 17:38:00,
2013-03-08 17:48:00,51.0,51.0,29.29,ESE,110,1.0,2.0,100,0.00,,,0.03,Wunderground v.1.13,2013-03-08 17:48:00,
2013-03-08 17:59:00,50.5,50.5,29.29,ESE,109,1.0,1.0,100,0.00,,,0.03,Wunderground v.1.13,2013-03-08 17:59:00,
2013-03-08 18:08:00,50.2,50.2,29.29,East,88,1.0,5.0,100,0.00,,,0.03,Wunderground v.1.13,2013-03-08 18:08:00,
2013-03-08 18:18:00,49.9,49.9,29.29,East,89,4.0,4.0,100,0.00,,,0.03,Wunderground v.1.13,2013-03-08 18:18:00,
2013-03-08 18:28:00,49.7,49.7,29.29,East,90,4.0,4.0,100,0.00,,,0.03,Wunderground v.1.13,2013-03-08 18:28:00,
2013-03-08 18:38:00,49.9,49.9,29.29,East,80,4.0,4.0,100,0.00,,,0.03,Wunderground v.1.13,2013-03-08 18:38:00,
2013-03-08 18:48:00,50.0,50.0,29.30,ESE,109,4.0,6.0,100,0.00,,,0.03,Wunderground v.1.13,2013-03-08 18:48:00,
2013-03-08 18:58:00,50.2,50.2,29.30,ENE,76,6.0,7.0,100,0.00,,,0.03,Wunderground v.1.13,2013-03-08 18:58:00,
2013-03-08 19:08:00,50.3,50.3,29.29,East,99,7.0,7.0,100,0.00,,,0.03,Wunderground v.1.13,2013-03-08 19:08:00,
2013-03-08 19:18:00,50.3,50.3,29.29,East,89,7.0,7.0,100,0.00,,,0.03,Wunderground v.1.13,2013-03-08 19:18:00,
2013-03-08 19:28:00,50.3,50.3,29.29,East,80,7.0,7.0,100,0.00,,,0.03,Wunderground v.1.13,2013-03-08 19:28:00,
2013-03-08 19:39:00,50.5,50.5,29.28,ESE,116,5.0,8.0,100,0.00,,,0.03,Wunderground v.1.13,2013-03-08 19:39:00,
2013-03-08 19:49:00,50.5,50.5,29.28,ESE,121,4.0,4.0,100,0.00,,,0.03,Wunderground v.1.13,2013-03-08 19:49:00,
2013-03-08 20:09:00,50.6,50.6,29.28,SE,128,4.0,4.0,100,0.00,,,0.04,Wunderground v.1.13,2013-03-08 20:09:00,
2013-03-08 20:19:00,50.7,50.7,29.28,East,97,3.0,6.0,100,0.00,,,0.04,Wunderground v.1.13,2013-03-08 20:19:00,
2013-03-08 20:29:00,50.7,50.7,29.28,ENE,64,4.0,4.0,100,0.00,,,0.04,Wunderground v.1.13,2013-03-08 20:29:00,
2013-03-08 20:39:00,50.7,50.7,29.28,ESE,112,4.0,5.0,100,0.00,,,0.04,Wunderground v.1.13,2013-03-08 20:39:00,
2013-03-08 20:49:00,50.7,50.7,29.28,ESE,117,4.0,4.0,100,0.00,,,0.04,Wunderground v.1.13,2013-03-08 20:49:00,
2013-03-08 20:59:00,50.9,50.9,29.27,East,99,4.0,5.0,100,0.00,,,0.04,Wunderground v.1.13,2013-03-08 20:59:00,
2013-03-08 21:09:00,50.9,50.9,29.27,ESE,121,4.0,4.0,100,0.00,,,0.04,Wunderground v.1.13,2013-03-08 21:09:00,
2013-03-08 21:19:00,51.0,51.0,29.27,ESE,117,4.0,4.0,100,0.00,,,0.04,Wunderground v.1.13,2013-03-08 21:19:00,
2013-03-08 21:29:00,50.9,50.9,29.27,ESE,106,4.0,8.0,100,0.00,,,0.04,Wunderground v.1.13,2013-03-08 21:29:00,
2013-03-08 21:39:00,50.9,50.9,29.27,East,85,4.0,4.0,100,0.00,,,0.04,Wunderground v.1.13,2013-03-08 21:39:00,
2013-03-08 21:49:00,50.9,50.9,29.27,ENE,78,3.0,7.0,100,0.00,,,0.04,Wunderground v.1.13,2013-03-08 21:49:00,
2013-03-08 21:59:00,50.9,50.9,29.27,ESE,119,4.0,4.0,100,0.00,,,0.04,Wunderground v.1.13,2013-03-08 21:59:00,
2013-03-08 22:09:00,50.9,50.9,29.27,ENE,71,4.0,4.0,100,0.00,,,0.04,Wunderground v.1.13,2013-03-08 22:09:00,
2013-03-08 22:19:00,50.9,50.9,29.27,East,80,5.0,5.0,100,0.00,,,0.04,Wunderground v.1.13,2013-03-08 22:19:00,
2013-03-08 22:29:00,50.7,50.7,29.27,ESE,113,4.0,4.0,100,0.00,,,0.04,Wunderground v.1.13,2013-03-08 22:29:00,
2013-03-08 22:39:00,50.6,50.6,29.27,East,95,4.0,4.0,100,0.00,,,0.04,Wunderground v.1.13,2013-03-08 22:39:00,
2013-03-08 22:49:00,50.6,50.6,29.26,ESE,103,5.0,5.0,100,0.00,,,0.04,Wunderground v.1.13,2013-03-08 22:49:00,
2013-03-08 22:59:00,50.6,50.6,29.25,ESE,104,4.0,4.0,100,0.00,,,0.04,Wunderground v.1.13,2013-03-08 22:59:00,
2013-03-08 23:09:00,50.6,50.6,29.25,East,80,4.0,4.0,100,0.00,,,0.04,Wunderground v.1.13,2013-03-08 23:09:00,
2013-03-08 23:19:00,50.7,50.7,29.25,ENE,65,3.0,3.0,100,0.00,,,0.04,Wunderground v.1.13,2013-03-08 23:19:00,
2013-03-08 23:29:00,50.7,50.7,29.24,SE,127,5.0,12.0,100,0.00,,,0.04,Wunderground v.1.13,2013-03-08 23:29:00,
2013-03-08 23:39:00,50.7,50.7,29.24,East,95,4.0,4.0,100,0.00,,,0.04,Wunderground v.1.13,2013-03-08 23:39:00,
2013-03-08 23:49:00,50.7,50.7,29.23,SE,128,5.0,12.0,100,0.00,,,0.05,Wunderground v.1.13,2013-03-08 23:49:00,